Location: Mentone
(34.5413°N, 85.5351°W)
Time: 18:00:45
(UTC-05:00)

Centaur AC-72 - Visible Passes

Search period start: 27 August 2014 00:00
Search period end: 06 September 2014 00:00
Orbit: 1086 x 35270 km, 19.1° (Epoch: 25 August)

Date Brightness Start Highest point End Pass type
(mag) Time Alt. Az. Time Alt. Az. Time Alt. Az.
27 Aug 8.0 00:00:00 61° SE 00:48:00 62° SE 03:14:28 10° ESE visible
27 Aug 7.2 18:11:37 10° E 22:11:47 27° E 23:55:21 10° E visible
28 Aug 6.8 23:07:29 10° WSW 01:11:11 46° WSW 08:36:27 10° SSW visible
29 Aug 7.3 20:04:39 10° SW 23:41:04 72° S 05:54:05 10° SSE visible
30 Aug 7.0 17:13:41 10° S 00:31:49 61° SE 02:58:08 10° ESE visible
31 Aug 7.2 18:06:26 10° E 21:55:35 26° E 23:37:17 10° E visible
01 Sep 9.3 03:08:03 10° W 03:43:04 11° W 04:26:01 10° W visible
01 Sep 6.9 22:50:50 10° WSW 00:54:40 47° WSW 08:20:30 10° SSW visible
02 Sep 7.3 19:48:33 10° SW 23:30:20 72° S 05:38:02 10° SSE visible
03 Sep 7.0 16:57:43 10° S 00:15:39 59° SE 02:41:46 10° ESE visible
04 Sep 8.7 18:01:41 10° E 21:39:24 24° E 23:19:02 10° E visible
05 Sep 9.2 02:39:23 10° W 03:26:41 12° W 04:29:45 10° W visible
05 Sep 8.5 22:34:13 10° WSW 00:00:00 47° WSW 00:00:00 47° WSW visible
